Location: Columbus
(35.2256°N, 82.1549°W)
Time: 18:33:02
(UTC-05:00)

Envisat - Pass Details

Date: 02 December 2021
Orbit: 764 x 766 km, 98.2° (Epoch: 21 January)

Event Time Altitude Azimuth Distance (km) Brightness Sun altitude
Rises 05:09:34 0° 16° (NNE) 3,236 6.3 -26.1°
Reaches altitude 10° 05:11:55 10° 20° (NNE) 2,306 5.6 -25.6°
Maximum altitude 05:16:56 61° 101° (E) 869 3.5 -24.6°
Drops below altitude 10° 05:21:55 10° 181° (S) 2,290 5.6 -23.6°
Sets 05:24:14 0° 185° (S) 3,212 6.3 -23.1°
